Voltar ao catálogo

CZ-6A DEB

AtivoSSO
NORAD 54343·DEBRIS·🇨🇳 China

Lançado Nov 11, 2022 de Taiyuan Satellite Launch Center

Loading…

Próximas Passagens (próximas 24 horas)

TLE

AtualizadoSource: Space-Track

Época: Sep 14, 2026, 05:58 UTC

1 54343U 22151CN  26257.24873940  .00000037  00000-0  44416-4 0  9992
2 54343  98.8422 256.9638 0042852  86.0325 274.5743 14.10740432197081

Acompanhe CZ-6A DEB em tempo real com AllMySat

Download on the App Store